sat.trackr.live / text

‹ back to catalog

GHGSAT-C12

NORAD 64529 · 2025-135B

PAYLOAD ACTIVE UNKNOWN

§ Identity

Operator
Country
CA
Launch date
2025-06-23
Launch site
AFWTR
Launch vehicle
Mass (kg)
RCS (m²)

External: N2YO · Heavens-Above · Gunter

§ Orbital elements

Epoch: 2026-05-25T03:27:47.551104Z

Period
94.73 min
Inclination
97.4720°
Eccentricity
0.0003523
Mean motion
15.20107500 rev/d
Perigee alt
503.1 km
Apogee alt
507.9 km
Semi-major
6,883.7 km
B*
1.4695e-4
RAAN
260.1605°
Arg perigee
244.6815°
Mean anomaly
115.4055°
Rev number
5,132

§ Raw data

GHGSAT-C121 64529U 25135B   26145.14430036  .00003106  00000+0  14695-3 0  99982 64529  97.4720 260.1605 0003523 244.6815 115.4055 15.20107500 51323

JSON: /api/v1/satellites/64529 · /tle

For live sub-satellite position, see the globe view (requires WebGL).

§ Visibility from observer

Set your observer location to see the next 7 days of passes ≥ 10°. The values pass through the URL so the page stays shareable.

No JS? Fill the form by hand. The geolocation button needs JavaScript.